This is the latest recevied weather packets stored in our database for station/object SP6PGH-13. If no packets are shown the sender has not sent any weather packets the latest 10 day(s).
| Time | Temp. | Humidity | Pressure | Rain* | Wind** | Luminosity | Snow |
|---|---|---|---|---|---|---|---|
| 1788617579 | 20.56° C | 50% | 1002.1 hPa | - | - | 303 W/m² | - |
| 1788616678 | 20.56° C | 49% | 1002.1 hPa | - | - | 84 W/m² | - |
| 1788615777 | 21.67° C | 47% | 1002.2 hPa | - | - | 435 W/m² | - |
| 1788614876 | 22.22° C | 48% | 1002.1 hPa | - | - | 475 W/m² | - |
| 1788613975 | 22.22° C | 46% | 1002.1 hPa | - | - | 552 W/m² | - |
| 1788613074 | 22.22° C | 46% | 1002.1 hPa | - | - | 543 W/m² | - |
| 1788612173 | 20.56° C | 53% | 1002.3 hPa | - | - | 557 W/m² | - |
| 1788611272 | 20.56° C | 53% | 1002.6 hPa | - | - | 652 W/m² | - |
| 1788610371 | 20.56° C | 52% | 1002.8 hPa | - | - | 663 W/m² | - |
| 1788609470 | 20.56° C | 53% | 1002.7 hPa | - | - | 125 W/m² | - |
| 1788608569 | 21.67° C | 49% | 1002.7 hPa | - | - | 657 W/m² | - |
| 1788607667 | 21.67° C | 50% | 1002.8 hPa | - | - | 643 W/m² | - |
| 1788606767 | 22.22° C | 51% | 1002.7 hPa | - | - | 684 W/m² | - |
| 1788605866 | 21.67° C | 53% | 1002.7 hPa | - | - | 678 W/m² | - |
| 1788604965 | 20° C | 58% | 1002.7 hPa | - | - | 245 W/m² | - |
| 1788604064 | 20° C | 55% | 1002.7 hPa | - | - | 606 W/m² | - |
| 1788603163 | 19.44° C | 59% | 1002.8 hPa | - | - | 185 W/m² | - |
| 1788602262 | 19.44° C | 60% | 1002.5 hPa | - | - | 198 W/m² | - |
| 1788601361 | 18.89° C | 63% | 1002.7 hPa | - | - | 135 W/m² | - |
| 1788600460 | 20° C | 60% | 1002.5 hPa | - | - | 660 W/m² | - |
| 1788599559 | 19.44° C | 62% | 1002.5 hPa | - | - | 263 W/m² | - |
| 1788598657 | 19.44° C | 62% | 1002.5 hPa | - | - | 545 W/m² | - |
| 1788597756 | 18.89° C | 63% | 1002.5 hPa | - | - | 147 W/m² | - |
| 1788596855 | 18.89° C | 65% | 1002.3 hPa | - | - | 231 W/m² | - |
| 1788595954 | 18.89° C | 64% | 1002.2 hPa | - | - | 463 W/m² | - |
* Rain since midnight (hover to see other rain measurements)
** Current wind speed in m/s (hover to see current wind gust speed)